Location: Newark
(40.3500°N, 15.2333°E)
Time: 21:05:51
(UTC+00:00)

Vanguard 1 - Pass Details

Date: 25 January 2020
Orbit: 650 x 3833 km, 34.2° (Epoch: 22 February)

Event Time Altitude Azimuth Distance (km) Brightness Sun altitude
Rises 15:13:55 0° 231° (SW) 3,186 15.1 8.2°
Reaches altitude 10° 15:16:45 10° 218° (SW) 2,108 13.5 7.7°
Maximum altitude 15:20:29 25° 161° (SSE) 1,298 11.0 7.1°
Drops below altitude 10° 15:24:17 10° 105° (ESE) 2,140 11.4 6.5°
Sets 15:27:10 0° 92° (E) 3,245 12.2 6.1°
